{"data":{"norad_id":59656,"epoch":"2026-09-21T14:32:46.141440Z","epoch_age_seconds":72567,"freshness":"FRESH","line1":"1 59656U 24084C   26264.60608960  .00000319  00000+0  21098-4 0  9990","line2":"2 59656  43.0027  15.5740 0001220 272.9048  87.1664 15.27580363134334","mean_motion":15.27580363,"eccentricity":0.000122,"inclination_deg":43.0027,"raan_deg":15.574,"arg_perigee_deg":272.9048,"mean_anomaly_deg":87.1664,"bstar":2.1098e-5,"rev_number":13433,"period_min":94.266726312978,"perigee_km":482.21094451617,"apogee_km":483.88507365839,"semimajor_km":6861.1850090873,"source":"CELESTRAK","updated_at":"2026-09-22T09:00:49.024684Z"}}